,

(GMT )
Prerov

Weather History for LKPO - June, 2013

Change the Weather History Date:

Saturday, June 15, 2013

  Actual Average Record
Temperature  
Mean Temperature 67 °F -  
Max Temperature 77 °F - - ()
Min Temperature 57 °F - - ()
Cooling Degree Days 2    
Growing Degree Days 17 (Base 50)    
Moisture  
Dew Point 57 °F    
Average Humidity 71    
Maximum Humidity 94    
Minimum Humidity 53    
Precipitation  
Precipitation 0.00 in - - ()
Sea Level Pressure  
Sea Level Pressure 30.01 in    
Wind  
Wind Speed 5 mph ()    
Max Wind Speed 13 mph    
Max Gust Speed -    
Visibility 6.2 miles    
Events Rain    
T = Trace of Precipitation, MM = Missing Value Source: Averaged Metar Reports

Daily Weather History Graph

Daily Weather History Graph

Search for Another Location

Airport or City:

Trip Planner

Search our weather history database for the weather conditions in past years. The results will help you decide how hot, cold, wet, or windy it might be!

Date:

Astronomy

Jun. 15, 2013 Rise Set
Actual Time 4:43 AM CEST 8:58 PM CEST
Civil Twilight 4:00 AM CEST 9:42 PM CEST
Nautical Twilight 2:57 AM CEST 10:44 PM CEST
Astronomical Twilight 1:23 AM CEST 12:18 AM CEST
Moon 11:32 AM CEST (6/15) No Moon Set
Length of Visible Light 17h 41m
Length of Day
16h 15m
Waxing Crescent, 37% of the Moon is Illuminated
Jun 15
Waxing Crescent
Jun 16
First Quarter
Jun 23
Full
Jun 30
Last Quarter
Jul 8
New

Hourly Weather History & Observations

Time (CEST) Temp. Dew Point Humidity Pressure Visibility Wind Dir Wind Speed Gust Speed Precip Events Conditions
12:00 AM 60.8 °F 53.6 °F 77% 30.06 in - ENE 10.4 mph - N/A   Clear
1:00 AM 60.8 °F 55.4 °F 82% 30.04 in 6.2 mi East 12.7 mph - N/A Rain Light Rain
2:00 AM 59.0 °F 55.4 °F 88% 30.04 in - Variable 2.3 mph - N/A   Clear
3:00 AM 57.2 °F 53.6 °F 88% 30.04 in - North 1.2 mph - N/A   Clear
4:00 AM 57.2 °F 53.6 °F 88% 30.04 in - Variable 2.3 mph - N/A   Clear
5:00 AM 57.2 °F 55.4 °F 94% 30.04 in - Calm Calm - N/A   Clear
6:00 AM 57.2 °F 55.4 °F 94% 30.04 in - Calm Calm - N/A   Clear
7:00 AM 60.8 °F 55.4 °F 82% 30.04 in - NNE 5.8 mph - N/A   Clear
8:00 AM 62.6 °F 55.4 °F 77% 30.04 in - ENE 9.2 mph - N/A   Clear
9:00 AM 66.2 °F 55.4 °F 68% 30.04 in - East 9.2 mph - N/A   Clear
10:00 AM 68.0 °F 57.2 °F 68% 30.04 in - ENE 8.1 mph - N/A   Clear
11:00 AM 69.8 °F 55.4 °F 60% 30.04 in 6.2 mi NNE 4.6 mph - N/A   Partly Cloudy
12:00 PM 71.6 °F 57.2 °F 60% 30.01 in 6.2 mi ENE 3.5 mph - N/A   Partly Cloudy
1:00 PM 75.2 °F 57.2 °F 53% 30.01 in 6.2 mi SE 3.5 mph - N/A   Scattered Clouds
2:00 PM 75.2 °F 57.2 °F 53% 30.01 in 6.2 mi Variable 2.3 mph - N/A   Scattered Clouds
3:00 PM 77.0 °F 60.8 °F 57% 29.98 in 6.2 mi WSW 5.8 mph - N/A   Scattered Clouds
4:00 PM 75.2 °F 60.8 °F 61% 29.98 in - SW 5.8 mph - N/A   Clear
5:00 PM 77.0 °F 59.0 °F 54% 29.95 in - WSW 6.9 mph - N/A   Clear
6:00 PM 75.2 °F 59.0 °F 57% 29.95 in - SW 5.8 mph - N/A   Clear
7:00 PM 73.4 °F 57.2 °F 57% 29.95 in - SW 6.9 mph - N/A   Clear
8:00 PM 71.6 °F 57.2 °F 60% 29.95 in - SSW 4.6 mph - N/A   Clear
9:00 PM 69.8 °F 57.2 °F 64% 29.98 in - South 2.3 mph - N/A   Clear
10:00 PM 64.4 °F 59.0 °F 83% 29.98 in - Variable 2.3 mph - N/A   Clear
11:00 PM 62.6 °F 59.0 °F 88% 30.01 in - Calm Calm - N/A   Clear